When you browse on this site, cookies collect data to enhance your experience and personalize the content and advertising you see.
Visit our Privacy Policy to learn more. By continuing to use the site, you agree to this use of cookies and data.
  • In Czech Republic
  • List of Countries
  • For 7 days
  • Water Temperature
  • Weather Map
  • Weather Widgets
  • user-avatar
    Login

    Hourly Weather Szolnok

    Today, 19 February, Wednesday

    Time Temperature Precipitation Wind Pressure Humidity
    00:00 +5°C° 0 mm 3 mps 761 mmHg 72%
    01:00 +4°C° 0 mm 3 mps 761 mmHg 70%
    02:00 +4°C° 0 mm 3 mps 760 mmHg 71%
    03:00 +3°C° 0 mm 3 mps 760 mmHg 72%
    04:00 +3°C° 0 mm 3 mps 760 mmHg 73%
    05:00 +3°C° 0 mm 3 mps 759 mmHg 73%
    06:00 +3°C° 0 mm 2 mps 759 mmHg 73%
    07:00 +3°C° 0 mm 2 mps 759 mmHg 73%
    08:00 +5°C° 0 mm 2 mps 759 mmHg 68%
    09:00 +6°C° 0 mm 2 mps 759 mmHg 63%
    10:00 +8°C° 0 mm 2 mps 759 mmHg 58%
    11:00 +8°C° 0 mm 2 mps 758 mmHg 54%
    12:00 +9°C° 0 mm 2 mps 758 mmHg 50%
    13:00 +10°C° 0 mm 2 mps 757 mmHg 46%
    14:00 +10°C° 0 mm 2 mps 757 mmHg 48%
    15:00 +11°C° 0 mm 1 mps 756 mmHg 51%
    16:00 +10°C° 0 mm 1 mps 756 mmHg 53%
    17:00 +10°C° 0 mm 1 mps 756 mmHg 55%
    18:00 +9°C° 0 mm 1 mps 756 mmHg 57%
    19:00 +8°C° 0 mm 1 mps 756 mmHg 59%
    20:00 +7°C° 0 mm 2 mps 756 mmHg 63%
    21:00 +7°C° 0 mm 3 mps 756 mmHg 66%
    22:00 +6°C° 0 mm 4 mps 757 mmHg 70%
    23:00 +5°C° 0 mm 4 mps 757 mmHg 71%

    Tomorrow, 20 February, Thursday

    Time Temperature Precipitation Wind Pressure Humidity
    00:00 +5°C° 0 mm 4 mps 757 mmHg 73%
    01:00 +4°C° 0 mm 4 mps 757 mmHg 75%
    02:00 +3°C° 0 mm 5 mps 757 mmHg 72%
    03:00 +3°C° 0 mm 6 mps 757 mmHg 70%
    04:00 +2°C° 0 mm 6 mps 757 mmHg 67%
    05:00 +2°C° 0 mm 6 mps 757 mmHg 70%
    06:00 +1°C° 0 mm 5 mps 758 mmHg 72%
    07:00 +1°C° 0 mm 5 mps 758 mmHg 74%
    08:00 +3°C° 0 mm 4 mps 758 mmHg 70%
    09:00 +4°C° 0 mm 4 mps 758 mmHg 67%
    10:00 +5°C° 0 mm 3 mps 759 mmHg 63%
    11:00 +7°C° 0 mm 3 mps 759 mmHg 59%
    12:00 +8°C° 0 mm 3 mps 758 mmHg 56%
    13:00 +8°C° 0 mm 3 mps 758 mmHg 53%
    14:00 +8°C° 0 mm 3 mps 758 mmHg 54%
    15:00 +8°C° 0 mm 3 mps 758 mmHg 54%
    16:00 +8°C° 0 mm 3 mps 758 mmHg 55%
    17:00 +7°C° 0 mm 3 mps 758 mmHg 59%
    18:00 +6°C° 0 mm 2 mps 759 mmHg 64%
    19:00 +5°C° 0 mm 2 mps 759 mmHg 68%
    20:00 +4°C° 0 mm 2 mps 759 mmHg 69%
    21:00 +4°C° 0 mm 2 mps 759 mmHg 70%
    22:00 +4°C° 0 mm 2 mps 759 mmHg 71%
    23:00 +3°C° 0 mm 2 mps 759 mmHg 71%

    Day after tomorrow, 21 February, Friday

    Time Temperature Precipitation Wind Pressure Humidity
    00:00 +4°C° 0 mm 1 mps 759 mmHg 72%
    01:00 +4°C° 0 mm 1 mps 759 mmHg 72%
    02:00 +3°C° 0 mm 1 mps 759 mmHg 72%
    03:00 +2°C° 0 mm 2 mps 759 mmHg 72%
    04:00 +2°C° 0 mm 2 mps 759 mmHg 72%
    05:00 +2°C° 0 mm 2 mps 759 mmHg 73%
    06:00 +2°C° 0 mm 2 mps 759 mmHg 74%
    07:00 +1°C° 0 mm 3 mps 759 mmHg 76%
    14:00 +6°C° 0 mm 7 mps 760 mmHg 60%
    15:00 +6°C° 0 mm 7 mps 760 mmHg 52%
    16:00 +6°C° 0 mm 7 mps 760 mmHg 44%
    17:00 +5°C° 0 mm 6 mps 761 mmHg 49%
    18:00 +4°C° 0 mm 6 mps 762 mmHg 54%
    19:00 +2°C° 0 mm 5 mps 763 mmHg 60%
    20:00 +3°C° 0 mm 4 mps 763 mmHg 62%
    21:00 +3°C° 0 mm 4 mps 763 mmHg 64%
    22:00 +1°C° 0 mm 4 mps 763 mmHg 66%
    23:00 +2°C° 0 mm 3 mps 764 mmHg 69%

    22 February, Saturday

    Time Temperature Precipitation Wind Pressure Humidity
    00:00 +1°C° 0 mm 3 mps 764 mmHg 71%
    01:00 +2°C° 0 mm 2 mps 764 mmHg 73%
    02:00 +1°C° 0 mm 2 mps 764 mmHg 74%
    03:00 +1°C° 0 mm 2 mps 764 mmHg 75%
    04:00 +2°C° 0 mm 1 mps 764 mmHg 76%
    05:00 +2°C° 0 mm 1 mps 765 mmHg 75%
    06:00 +2°C° 0 mm 1 mps 765 mmHg 75%
    07:00 +2°C° 0 mm 1 mps 765 mmHg 75%
    08:00 +3°C° 0 mm 1 mps 765 mmHg 69%
    09:00 +4°C° 0 mm 2 mps 766 mmHg 62%
    10:00 +6°C° 0 mm 2 mps 766 mmHg 56%
    11:00 +7°C° 0 mm 2 mps 766 mmHg 53%
    12:00 +8°C° 0 mm 3 mps 765 mmHg 50%
    13:00 +9°C° 0 mm 3 mps 765 mmHg 47%
    14:00 +9°C° 0 mm 3 mps 765 mmHg 49%
    15:00 +9°C° 0 mm 3 mps 765 mmHg 51%
    16:00 +9°C° 0 mm 3 mps 764 mmHg 53%
    17:00 +7°C° 0 mm 4 mps 764 mmHg 57%
    18:00 +6°C° 0 mm 4 mps 764 mmHg 61%
    19:00 +5°C° 0 mm 4 mps 764 mmHg 66%
    20:00 +4°C° 0 mm 4 mps 764 mmHg 66%
    21:00 +4°C° 0 mm 4 mps 763 mmHg 66%
    22:00 +4°C° 0 mm 4 mps 763 mmHg 66%
    23:00 +4°C° 0 mm 4 mps 763 mmHg 66%

    23 February, Sunday

    Time Temperature Precipitation Wind Pressure Humidity
    00:00 +4°C° 0 mm 4 mps 763 mmHg 66%
    01:00 +4°C° 0 mm 4 mps 763 mmHg 67%
    02:00 +4°C° 0 mm 4 mps 762 mmHg 67%
    03:00 +3°C° 0 mm 5 mps 762 mmHg 67%
    04:00 +3°C° 0 mm 5 mps 762 mmHg 68%
    05:00 +4°C° 0 mm 4 mps 762 mmHg 68%
    06:00 +4°C° 0 mm 4 mps 761 mmHg 68%
    07:00 +4°C° 0 mm 4 mps 761 mmHg 69%
    08:00 +5°C° 0 mm 4 mps 761 mmHg 66%
    09:00 +6°C° 0 mm 4 mps 761 mmHg 63%
    10:00 +7°C° 0 mm 5 mps 761 mmHg 60%
    11:00 +8°C° 0 mm 5 mps 761 mmHg 59%
    12:00 +9°C° 0 mm 5 mps 760 mmHg 58%
    13:00 +10°C° 0 mm 5 mps 760 mmHg 56%
    14:00 +11°C° 0 mm 4 mps 759 mmHg 58%
    15:00 +12°C° 0 mm 3 mps 758 mmHg 60%
    16:00 +12°C° 0 mm 3 mps 758 mmHg 63%
    17:00 +11°C° 0 mm 3 mps 757 mmHg 63%
    18:00 +10°C° 0 mm 4 mps 757 mmHg 63%
    19:00 +8°C° 0 mm 5 mps 756 mmHg 63%
    20:00 +8°C° 0 mm 5 mps 756 mmHg 63%
    21:00 +8°C° 0 mm 5 mps 755 mmHg 62%
    22:00 +7°C° 0 mm 6 mps 755 mmHg 61%
    23:00 +7°C° 0 mm 6 mps 754 mmHg 63%

    24 February, Monday

    Time Temperature Precipitation Wind Pressure Humidity
    00:00 +8°C° 0 mm 7 mps 753 mmHg 64%
    01:00 +8°C° 0 mm 7 mps 753 mmHg 66%
    02:00 +7°C° 0 mm 8 mps 752 mmHg 65%
    03:00 +8°C° 0 mm 9 mps 752 mmHg 64%
    04:00 +8°C° 0 mm 9 mps 752 mmHg 63%
    05:00 +8°C° 0.1 mm 10 mps 753 mmHg 58%
    06:00 +7°C° 0.1 mm 11 mps 753 mmHg 54%
    07:00 +7°C° 0.1 mm 12 mps 754 mmHg 49%
    08:00 +7°C° 0 mm 12 mps 756 mmHg 47%
    09:00 +5°C° 0 mm 12 mps 757 mmHg 46%
    10:00 +6°C° 0 mm 11 mps 759 mmHg 44%
    11:00 +6°C° 0 mm 11 mps 759 mmHg 42%
    12:00 +7°C° 0 mm 11 mps 760 mmHg 41%
    13:00 +7°C° 0 mm 10 mps 760 mmHg 40%
    14:00 +7°C° 0 mm 9 mps 760 mmHg 41%
    15:00 +7°C° 0 mm 9 mps 760 mmHg 42%
    16:00 +6°C° 0 mm 8 mps 761 mmHg 43%
    17:00 +6°C° 0 mm 7 mps 761 mmHg 47%
    18:00 +5°C° 0 mm 6 mps 762 mmHg 51%
    19:00 +5°C° 0 mm 5 mps 762 mmHg 55%
    20:00 +4°C° 0 mm 4 mps 763 mmHg 56%
    21:00 +4°C° 0 mm 4 mps 763 mmHg 58%
    22:00 +3°C° 0 mm 4 mps 763 mmHg 60%
    23:00 +3°C° 0 mm 3 mps 763 mmHg 62%
    Show more